Location: Aufkirchen
(47.9603°N, 11.3653°E)
Time: 16:50:45
(UTC+01:00)

Transit 2A - Pass Details

Date: 28 November 2020
Orbit: 599 x 960 km, 66.7° (Epoch: 26 January)

Event Time Altitude Azimuth Distance (km) Brightness Sun altitude
Rises 16:57:42 0° 185° (S) 3,626 10.0 -5.6°
Reaches altitude 10° 17:00:28 10° 177° (S) 2,676 9.1 -6.0°
Maximum altitude 17:06:08 37° 113° (ESE) 1,420 7.1 -6.9°
Drops below altitude 10° 17:11:35 10° 49° (NE) 2,568 8.1 -7.7°
Enters shadow 17:12:13 - 46° (NE) 2,781 8.3 -7.8°
Sets 17:14:10 0° 41° (NE) 3,463 - -8.1°
